Weather Roundup
Issued by NWS

Home | Current Version | Previous Version | Text Only | Print | Product List | Glossary On
Versions: 1 2 3 4 5 6 7 8 9 10 11 12 13 14 15 16 17 18 19 20 21 22 23 24 25 26 27 28 29 30 31 32 33 34 35 36 37 38 39 40 41 42 43 44 45 46 47 48 49 50
000
NZUS93 KARX 301210
HRRWXR

CURRENT HOURLY OBSERVATIONS ACROSS
MUCH OF THE UPPER MISSISSIPPI VALLEY
NATIONAL WEATHER SERVICE LA CROSSE WI
700 AM CDT THU JUL 30 2015


...SOUTHEAST MINNESOTA...


CITY           SKY/WX    TMP DP  RH WIND       PRES   REMARKS
ROCHESTER      CLEAR     61  55  81 W10       30.09R
ROCHESTER/MAYO FAIR      64  54  69 W13       30.07R
WINONA         SUNNY     61  57  88 CALM      30.04S
AUSTIN         CLEAR     64  55  72 W5        30.09S
ALBERT LEA     CLEAR     64  55  72 W3        30.10R
DODGE CENTER   CLEAR     57  55  94 SW8       30.08S
PRESTON        SUNNY     62  54  74 W9        30.08S
OWATONNA       CLEAR     61  55  82 SW5       30.08R
FARIBAULT      CLEAR     63  57  82 SW6       30.07R
$$

...ELSEWHERE IN MINNESOTA...


CITY           SKY/WX    TMP DP  RH WIND       PRES   REMARKS
MINNEAPOLIS    CLEAR     65  55  70 W7        30.04R
INTNL FALLS    SUNNY     57  54  89 W7        29.91R
DULUTH         SUNNY     64  56  75 W13       29.94R
RED WING       SUNNY     63  57  82 CALM      30.03R
REDWOOD FALLS  CLEAR     66  53  63 W10       30.08R
MANKATO        CLEAR     61  54  77 W8        30.08R
WORTHINGTON    CLEAR     61  52  72 W5        30.13S
FAIRMONT       CLEAR     64  54  68 W7        30.11R
$$

...SOUTHWEST WISCONSIN...


CITY           SKY/WX    TMP DP  RH WIND       PRES   REMARKS
LA CROSSE      SUNNY     69  56  62 S3        30.03S
PRAIRIE DU CHI SUNNY     65  56  72 CALM      30.07S
BOSCOBEL       SUNNY     63  59  87 SW5       30.06S
LONE ROCK      SUNNY     65  58  78 W6        30.06R
PLATTEVILLE    SUNNY     62  60  93 W3        30.08S
FORT MC COY    SUNNY     64  55  70 SW3       30.04R
CAMP DOUGLAS   SUNNY     64  61  88 W5        30.01S
VIROQUA        FAIR      62  56  82 W7        30.07R
WIS DELLS      SUNNY     65  55  70 SW6       30.04R
$$

...ELSEWHERE IN WISCONSIN...


CITY           SKY/WX    TMP DP  RH WIND       PRES   REMARKS
MILWAUKEE      SUNNY     69  55  60 W8        30.01R
MADISON        SUNNY     67  56  67 VRB7      30.03R
GREEN BAY      SUNNY     67  56  67 W10G21    29.95R
EAU CLAIRE     SUNNY     63  56  78 SW10      30.00R
BLACK RVR FLS  FAIR      57  57 100 CALM      30.01S
MEDFORD        SUNNY     61  56  84 W7        29.99S
WAUSAU         SUNNY     65  56  72 NW12      29.96R
WIS RAPIDS     SUNNY     65  54  67 W10       30.01R
MARSHFIELD     SUNNY     63  54  72 W7        30.00R
RICE LAKE      SUNNY     62  56  81 W5        30.01R
$$

...NORTHEAST IOWA...


CITY           SKY/WX    TMP DP  RH WIND       PRES   REMARKS
DECORAH        SUNNY     63  57  82 W6        30.08S
MASON CITY     CLEAR     64  57  78 W8        30.12S
CHARLES CITY   CLEAR     61  61 100 W5        30.10F
OELWEIN          N/A     61  59  94 NW5       30.11S
$$

...ELSEWHERE IN IOWA...


CITY           SKY/WX    TMP DP  RH WIND       PRES   REMARKS
DES MOINES     CLEAR     65  57  75 SW5       30.14S
IOWA CITY      CLEAR     64  60  87 W8        30.12S
FORT DODGE     CLEAR     61  55  82 SW3       30.14S
$$

...NORTHERN ILLINOIS...


CITY           SKY/WX    TMP DP  RH WIND       PRES   REMARKS
CHICAGO-OHARE  SUNNY     67  59  75 W8        30.05R
CHICAGO-MIDWAY SUNNY     71  58  63 W8        30.05R
MOLINE         SUNNY     66  60  81 W7        30.10S
ROCKFORD       SUNNY     66  58  75 W5        30.08R
PEORIA         SUNNY     71  59  65 NW6       30.12R
$$

NOTE: "FAIR" INDICATES FEW OR NO CLOUDS BELOW 12,000 FEET WITH NO
SIGNIFICANT WEATHER AND/OR OBSTRUCTIONS TO VISIBILITY. WIND
SPEEDS ARE IN MILES-PER-HOUR.



USA.gov is the U.S. government's official web portal to all federal, state and local government web resources and services.